Hourly Data Report for October 04, 2017

All times are specified in Local Standard Time (LST). Add 1 hour to adjust for Daylight Saving Time where and when it is observed.

DEBERT
NOVA SCOTIA

45°25'00.000" N
63°28'00.000" W
37.50 m
8201390
71317
ZDB

Download Data

Hourly Data (October 2017)
Hourly Data Report for October 4, 2017
Temp Definition
°C
Dew Point Temp Definition
°C
Rel Hum Definition
%
Wind Dir Definition
10's deg

Wind Spd Definition
km/h
Visibility Definition
km
Stn Press Definition
kPa
Hmdx Definition


Wind Chill Definition


Weather Definition


TIME
00:00 4.0 3.0 93 0 1   102.55     LegendNANA
01:00 4.2 3.4 94 5 2   102.48     LegendNANA
02:00 6.4 5.1 92 9 4   102.41     LegendNANA
03:00 9.1 7.4 89 20 10   102.34     LegendNANA
04:00 9.4 7.0 85 23 16   102.28     LegendNANA
05:00 9.2 6.5 83 22 14   102.20     LegendNANA
06:00 9.3 6.8 84 22 15   102.15     LegendNANA
07:00 9.5 7.0 84 23 13   102.09     LegendNANA
08:00 10.2 7.8 85 22 12   102.02     LegendNANA
09:00 12.1 9.0 82 24 18   101.98     LegendNANA
10:00 13.6 10.2 80 23 24   101.90     LegendNANA
11:00 14.6 11.3 80 25 28   101.84     LegendNANA
12:00 15.8 12.0 78 25 28   101.75     LegendNANA
13:00 16.8 11.7 72   0   101.61     LegendNANA
14:00 17.4 11.6 69 25 26   101.51     LegendNANA
15:00 17.6 12.1 70 24 24   101.44     LegendNANA
16:00 17.3 12.2 72 26 26   101.39     LegendNANA
17:00 16.4 12.1 76 23 13   101.33     LegendNANA
18:00 14.8 11.6 81 25 18   101.24     LegendNANA
19:00 14.2 11.9 86 23 9   101.22     LegendNANA
20:00 13.2 11.6 90 21 6   101.18     LegendNANA
21:00 13.0 11.5 90 22 7   101.15     LegendNANA
22:00 13.6 10.8 83 22 12   101.09     LegendNANA
23:00 13.2 10.3 83 23 12   101.01     LegendNANA

Notes on Data Quality.

Legend

  • E = Estimated
  • M = Missing
  • NA = Not Available
  • ‡ = Partner data that is not subject to review by the National Climate Archives
Date modified: